Regional Weather Roundup
Issued by NWS

Home | Current Version | Previous Version | Graphics & Text | Print | Product List | Glossary On
Versions: 1 2 3 4 5 6 7 8 9 10 11 12 13 14 15 16 17 18 19 20 21 22 23 24 25 26 27 28 29 30 31 32 33 34 35 36 37 38 39 40 41 42 43 44 45 46 47 48 49 50
000
ASUS45 KCYS 300410
RWRWY

WYOMING REGIONAL WEATHER ROUNDUP
NATIONAL WEATHER SERVICE CHEYENNE WY
1000 PM MDT SAT AUG 29 2015

NOTE:  "FAIR" INDICATES FEW OR NO CLOUDS BELOW 12,000 FEET
WITH NO SIGNIFICANT WEATHER AND/OR OBSTRUCTIONS TO VISIBILITY.

WYZ001-300500-
YELLOWSTONE NATIONAL PARK

CITY           SKY/WX    TMP DP  RH WIND       PRES   REMARKS
LK YELLOWSTONE   N/A     61  40  45 NW8G18    30.22R
W YELLOWSTONE  NOT AVBL

$$
WYZ002>013-054>058-071-098>099-300500-
NORTHERN WYOMING

CITY           SKY/WX    TMP DP  RH WIND       PRES   REMARKS
JACKSON        FAIR      66  43  42 CALM      30.08F
CODY           FAIR      72  41  33 CALM      29.95S
GREYBULL       FAIR      77  41  27 CALM      29.84S
WORLAND        FAIR      76  38  25 S10       29.87R
SHERIDAN       FAIR      67  42  40 SW5       29.86S
BUFFALO        FAIR      77  33  20 W8        29.96F
GILLETTE       FAIR      75  35  23 S13       29.92S
HULETT         FAIR      82  32  16 S15G21    29.94F
NEWCASTLE      FAIR      81  34  18 MISG      29.99S

$$
WYZ014>020-022>026-101>103-300500-
CENTRAL WYOMING

CITY           SKY/WX    TMP DP  RH WIND       PRES   REMARKS
BIG PINEY      FAIR      64  40  41 W3        30.16S
PINEDALE       FAIR      63  37  39 N5        30.18S
DUBOIS         FAIR      63  37  39 NW5       30.15F
LANDER         FAIR      78  37  22 SW10      30.00S
RIVERTON       FAIR      79  35  20 SW6       30.01S
CASPER         FAIR      68  30  24 S3        30.02F
DOUGLAS        FAIR      70  29  21 SE9       30.03F

$$
WYZ021-027>030-104>119-300500-
SOUTHERN WYOMING

CITY           SKY/WX    TMP DP  RH WIND       PRES   REMARKS
EVANSTON       FAIR      68  36  30 S8        30.16S
KEMMERER       FAIR     N/A N/A N/A SE5       30.18S
FORT BRIDGER   CLEAR     70  32  24 SW14      30.20R
ROCK SPRINGS   FAIR      72  32  23 S13G18    30.15S
DIXON          FAIR      67  31  25 NE6       30.21S
RAWLINS        FAIR      67  28  23 S5        30.19S
SARATOGA       FAIR      61  36  39 S8        30.23S
LARAMIE        FAIR      64  38  38 SE10      30.25S
CHEYENNE       FAIR      71  42  35 S12G23    30.19S
TORRINGTON     FAIR      69  42  37 E9        30.03S
PINE BLUFFS    FAIR      70  39  32 S9        30.14S

$$


USA.gov is the U.S. government's official web portal to all federal, state and local government web resources and services.